"read_dt","SO2 (ppb)","flags","PMT voltage (V)","lamp voltage (V)","lamp intensity (Hz)","internal temp (C)","react chamber temp (C)","sample flow (l/min)","pres (mmHg)","SO2 bkg (ppb)","SO2 coefficient"
2016-07-27 00:00:00,2391E-3,5C000400,-0724,0825,12245,029.6,045.5,0.252,754.0,01.17,0.508
2016-07-27 00:01:00,2317E-3,5C000400,-0724,0825,12274,029.6,045.5,0.252,753.9,01.17,0.508
2016-07-27 00:02:00,2342E-3,5C000400,-0724,0825,12197,029.6,045.5,0.252,753.9,01.17,0.508
2016-07-27 00:03:00,2238E-3,5C000400,-0724,0825,12167,029.6,045.5,0.252,753.9,01.17,0.508
2016-07-27 00:04:00,2377E-3,5C000400,-0724,0825,12180,029.6,045.5,0.252,753.9,01.17,0.508
2016-07-27 00:05:00,2295E-3,5C000400,-0724,0825,12334,029.6,045.5,0.252,753.9,01.17,0.508
2016-07-27 00:06:00,2279E-3,5C000400,-0724,0825,12412,029.6,045.5,0.252,753.9,01.17,0.508
2016-07-27 00:07:00,2211E-3,5C000400,-0724,0824,12237,029.6,045.5,0.252,753.9,01.17,0.508
2016-07-27 00:08:00,2318E-3,5C000400,-0724,0825,12220,029.6,045.5,0.252,753.9,01.17,0.508
2016-07-27 00:09:00,2455E-3,5C000400,-0724,0825,12401,029.6,045.5,0.252,753.9,01.17,0.508
2016-07-27 00:10:00,2144E-3,5C000400,-0724,0825,12056,029.6,045.5,0.252,753.9,01.17,0.508
2016-07-27 00:11:00,2222E-3,5C000400,-0724,0825,12175,029.6,045.5,0.252,753.9,01.17,0.508
2016-07-27 00:12:00,2164E-3,5C000400,-0724,0825,12247,029.6,045.5,0.252,753.9,01.17,0.508
2016-07-27 00:13:00,2289E-3,5C000400,-0724,0825,12238,029.5,045.5,0.252,753.9,01.17,0.508
2016-07-27 00:14:00,2160E-3,5C000400,-0724,0825,12177,029.6,045.5,0.252,753.9,01.17,0.508
2016-07-27 00:15:00,2351E-3,5C000400,-0724,0824,12260,029.6,045.5,0.252,753.9,01.17,0.508
2016-07-27 00:16:00,2269E-3,5C000400,-0724,0825,12129,029.6,045.5,0.252,753.9,01.17,0.508
2016-07-27 00:17:00,2300E-3,5C000400,-0724,0825,12175,029.6,045.5,0.252,753.9,01.17,0.508
2016-07-27 00:18:00,2166E-3,5C000400,-0724,0824,12320,029.6,045.5,0.252,753.9,01.17,0.508
2016-07-27 00:19:00,2215E-3,5C000400,-0724,0824,12197,029.6,045.5,0.252,753.9,01.17,0.508
2016-07-27 00:20:00,2196E-3,5C000400,-0724,0825,12341,029.6,045.5,0.252,753.9,01.17,0.508
2016-07-27 00:21:00,2231E-3,5C000400,-0724,0825,12193,029.6,045.5,0.252,753.9,01.17,0.508
2016-07-27 00:22:00,2230E-3,5C000400,-0724,0824,12223,029.6,045.5,0.252,753.9,01.17,0.508
2016-07-27 00:23:00,2102E-3,5C000400,-0724,0824,12284,029.6,045.5,0.252,753.9,01.17,0.508
2016-07-27 00:24:00,2278E-3,5C000400,-0724,0825,12171,029.6,045.5,0.252,753.8,01.17,0.508
2016-07-27 00:25:00,2154E-3,5C000400,-0724,0825,12222,029.6,045.5,0.252,753.9,01.17,0.508
2016-07-27 00:26:00,2221E-3,5C000400,-0724,0825,12296,029.6,045.5,0.252,753.9,01.17,0.508
2016-07-27 00:27:00,2157E-3,5C000400,-0724,0825,12239,029.6,045.5,0.252,753.8,01.17,0.508
2016-07-27 00:28:00,2190E-3,5C000400,-0724,0824,12021,029.6,045.5,0.252,753.9,01.17,0.508
2016-07-27 00:29:00,2253E-3,5C000400,-0724,0825,12311,029.6,045.5,0.252,753.8,01.17,0.508
2016-07-27 00:30:00,2253E-3,5C000400,-0724,0824,12218,029.6,045.5,0.252,753.8,01.17,0.508
2016-07-27 00:31:00,2245E-3,5C000400,-0724,0825,12288,029.6,045.5,0.252,753.7,01.17,0.508
2016-07-27 00:32:00,2265E-3,5C000400,-0724,0825,12236,029.6,045.5,0.252,753.8,01.17,0.508
2016-07-27 00:33:00,2272E-3,5C000400,-0724,0825,12125,029.6,045.5,0.252,753.8,01.17,0.508
2016-07-27 00:34:00,2209E-3,5C000400,-0724,0824,12239,029.6,045.5,0.252,753.8,01.17,0.508
2016-07-27 00:35:00,2218E-3,5C000400,-0724,0824,12268,029.6,045.5,0.252,753.8,01.17,0.508
2016-07-27 00:36:00,2243E-3,5C000400,-0724,0825,12168,029.6,045.5,0.252,753.9,01.17,0.508
2016-07-27 00:37:00,2281E-3,5C000400,-0724,0825,12220,029.6,045.5,0.252,753.8,01.17,0.508
2016-07-27 00:38:00,2255E-3,5C000400,-0724,0824,12140,029.6,045.5,0.252,753.8,01.17,0.508
2016-07-27 00:39:00,2216E-3,5C000400,-0724,0825,12166,029.6,045.5,0.252,753.8,01.17,0.508
2016-07-27 00:40:00,2205E-3,5C000400,-0724,0825,12219,029.6,045.5,0.252,753.8,01.17,0.508
2016-07-27 00:41:00,2192E-3,5C000400,-0724,0824,12239,029.6,045.5,0.252,753.8,01.17,0.508
2016-07-27 00:42:00,2287E-3,5C000400,-0724,0825,12231,029.6,045.5,0.252,753.8,01.17,0.508
2016-07-27 00:43:00,2364E-3,5C000400,-0724,0825,12154,029.6,045.5,0.252,753.8,01.17,0.508
2016-07-27 00:44:00,2408E-3,5C000400,-0724,0825,12275,029.6,045.5,0.252,753.8,01.17,0.508
2016-07-27 00:45:00,2275E-3,5C000400,-0724,0825,12152,029.6,045.5,0.252,753.8,01.17,0.508
2016-07-27 00:46:00,2174E-3,5C000400,-0724,0824,12262,029.6,045.5,0.252,753.8,01.17,0.508
2016-07-27 00:47:00,2316E-3,5C000400,-0724,0825,12174,029.6,045.5,0.252,753.8,01.17,0.508
2016-07-27 00:48:00,2258E-3,5C000400,-0724,0824,12380,029.5,045.5,0.252,753.8,01.17,0.508
2016-07-27 00:49:00,2342E-3,5C000400,-0724,0825,12247,029.6,045.5,0.252,753.8,01.17,0.508
2016-07-27 00:50:00,2183E-3,5C000400,-0724,0824,12352,029.5,045.5,0.252,753.8,01.17,0.508
2016-07-27 00:51:00,2197E-3,5C000400,-0724,0824,12179,029.6,045.5,0.252,753.8,01.17,0.508
2016-07-27 00:52:00,2218E-3,5C000400,-0724,0824,12297,029.6,045.5,0.252,753.9,01.17,0.508
2016-07-27 00:53:00,2305E-3,5C000400,-0724,0824,12183,029.6,045.5,0.252,753.9,01.17,0.508
2016-07-27 00:54:00,2280E-3,5C000400,-0724,0825,12325,029.6,045.5,0.252,753.9,01.17,0.508
2016-07-27 00:55:00,2409E-3,5C000400,-0724,0825,12148,029.6,045.5,0.252,753.9,01.17,0.508
2016-07-27 00:56:00,2264E-3,5C000400,-0724,0824,12258,029.6,045.5,0.252,753.9,01.17,0.508
2016-07-27 00:57:00,2171E-3,5C000400,-0724,0825,12246,029.6,045.5,0.252,753.9,01.17,0.508
2016-07-27 00:58:00,2208E-3,5C000400,-0724,0825,12221,029.6,045.5,0.252,753.9,01.17,0.508
2016-07-27 00:59:00,2231E-3,5C000400,-0724,0824,12287,029.6,045.5,0.252,753.9,01.17,0.508
2016-07-27 01:00:00,2169E-3,5C000400,-0724,0825,12107,029.6,045.5,0.252,753.9,01.17,0.508
2016-07-27 01:01:00,2198E-3,5C000400,-0724,0825,12261,029.6,045.5,0.252,753.9,01.17,0.508
2016-07-27 01:02:00,2124E-3,5C000400,-0724,0825,12053,029.6,045.5,0.252,753.9,01.17,0.508
2016-07-27 01:03:00,2322E-3,5C000400,-0724,0825,12355,029.6,045.5,0.252,753.8,01.17,0.508
2016-07-27 01:04:00,2391E-3,5C000400,-0724,0824,12277,029.6,045.5,0.252,753.9,01.17,0.508
2016-07-27 01:05:00,2231E-3,5C000400,-0724,0825,12098,029.5,045.5,0.252,754.0,01.17,0.508
2016-07-27 01:06:00,2233E-3,5C000400,-0724,0824,12288,029.6,045.5,0.252,754.0,01.17,0.508
2016-07-27 01:07:00,2164E-3,5C000400,-0724,0825,12231,029.6,045.5,0.252,754.0,01.17,0.508
2016-07-27 01:08:00,2178E-3,5C000400,-0724,0825,12361,029.6,045.5,0.252,754.0,01.17,0.508
2016-07-27 01:09:00,2276E-3,5C000400,-0724,0824,12122,029.6,045.5,0.252,754.0,01.17,0.508
2016-07-27 01:10:00,2065E-3,5C000400,-0724,0824,12246,029.6,045.5,0.252,754.0,01.17,0.508
2016-07-27 01:11:00,2242E-3,5C000400,-0724,0824,12053,029.6,045.5,0.252,754.0,01.17,0.508
2016-07-27 01:12:00,2291E-3,5C000400,-0724,0825,12353,029.6,045.5,0.252,754.0,01.17,0.508
2016-07-27 01:13:00,2157E-3,5C000400,-0724,0825,12103,029.6,045.5,0.252,754.0,01.17,0.508
2016-07-27 01:14:00,2314E-3,5C000400,-0724,0825,12171,029.5,045.5,0.252,754.0,01.17,0.508
2016-07-27 01:15:00,2226E-3,5C000400,-0724,0825,12176,029.6,045.5,0.252,754.0,01.17,0.508
2016-07-27 01:16:00,2272E-3,5C000400,-0724,0825,12380,029.5,045.5,0.252,754.0,01.17,0.508
2016-07-27 01:17:00,2169E-3,5C000400,-0724,0825,12279,029.6,045.5,0.252,754.0,01.17,0.508
2016-07-27 01:18:00,2248E-3,5C000400,-0724,0824,12255,029.6,045.5,0.252,754.0,01.17,0.508
2016-07-27 01:19:00,2145E-3,5C000400,-0724,0825,12192,029.6,045.5,0.252,754.0,01.17,0.508
2016-07-27 01:20:00,2093E-3,5C000400,-0724,0825,12312,029.6,045.5,0.252,754.0,01.17,0.508
2016-07-27 01:21:00,2259E-3,5C000400,-0724,0825,12157,029.6,045.5,0.252,754.0,01.17,0.508
2016-07-27 01:22:00,2178E-3,5C000400,-0724,0825,12236,029.6,045.5,0.252,754.0,01.17,0.508
2016-07-27 01:23:00,2245E-3,5C000400,-0724,0825,12299,029.5,045.5,0.252,754.0,01.17,0.508
2016-07-27 01:24:00,2187E-3,5C000400,-0724,0825,12220,029.5,045.5,0.252,754.0,01.17,0.508
2016-07-27 01:25:00,2212E-3,5C000400,-0724,0825,12198,029.6,045.5,0.252,754.0,01.17,0.508
2016-07-27 01:26:00,2057E-3,5C000400,-0724,0825,12318,029.5,045.5,0.252,754.0,01.17,0.508
2016-07-27 01:27:00,2264E-3,5C000400,-0724,0825,12287,029.6,045.5,0.252,754.0,01.17,0.508
2016-07-27 01:28:00,2253E-3,5C000400,-0724,0825,12329,029.6,045.5,0.252,754.0,01.17,0.508
2016-07-27 01:29:00,2128E-3,5C000400,-0724,0824,12201,029.6,045.5,0.252,754.0,01.17,0.508
2016-07-27 01:30:00,2135E-3,5C000400,-0724,0825,12263,029.6,045.5,0.252,754.0,01.17,0.508
2016-07-27 01:31:00,2256E-3,5C000400,-0724,0825,12356,029.5,045.5,0.253,754.0,01.17,0.508
2016-07-27 01:32:00,2204E-3,5C000400,-0724,0826,12157,029.5,045.5,0.252,754.0,01.17,0.508
2016-07-27 01:33:00,2361E-3,5C000400,-0724,0824,12192,029.6,045.5,0.252,754.0,01.17,0.508
2016-07-27 01:34:00,2118E-3,5C000400,-0724,0824,12159,029.6,045.5,0.252,754.0,01.17,0.508
2016-07-27 01:35:00,2147E-3,5C000400,-0724,0824,12250,029.6,045.5,0.252,754.0,01.17,0.508
2016-07-27 01:36:00,2288E-3,5C000400,-0724,0825,12273,029.6,045.5,0.252,754.0,01.17,0.508
2016-07-27 01:37:00,2270E-3,5C000400,-0724,0825,12153,029.5,045.5,0.252,754.1,01.17,0.508
2016-07-27 01:38:00,2235E-3,5C000400,-0724,0825,12142,029.6,045.5,0.252,754.1,01.17,0.508
2016-07-27 01:39:00,2185E-3,5C000400,-0724,0825,12159,029.6,045.5,0.252,754.0,01.17,0.508
2016-07-27 01:40:00,2314E-3,5C000400,-0724,0825,12167,029.6,045.5,0.252,754.0,01.17,0.508
2016-07-27 01:41:00,2251E-3,5C000400,-0724,0825,12232,029.6,045.5,0.252,754.1,01.17,0.508
2016-07-27 01:42:00,2098E-3,5C000400,-0724,0825,12278,029.5,045.5,0.252,754.1,01.17,0.508
2016-07-27 01:43:00,2150E-3,5C000400,-0724,0825,12381,029.6,045.5,0.252,754.1,01.17,0.508
2016-07-27 01:44:00,2238E-3,5C000400,-0724,0825,12305,029.6,045.5,0.252,754.1,01.17,0.508
2016-07-27 01:45:00,2144E-3,5C000400,-0724,0826,12190,029.6,045.5,0.252,754.1,01.17,0.508
2016-07-27 01:46:00,2290E-3,5C000400,-0724,0824,12334,029.5,045.5,0.252,754.1,01.17,0.508
2016-07-27 01:47:00,2148E-3,5C000400,-0724,0824,12252,029.5,045.5,0.252,754.1,01.17,0.508
2016-07-27 01:48:00,2254E-3,5C000400,-0724,0825,12224,029.6,045.5,0.252,754.1,01.17,0.508
2016-07-27 01:49:00,2180E-3,5C000400,-0724,0825,12239,029.6,045.5,0.252,754.0,01.17,0.508
2016-07-27 01:50:00,2037E-3,5C000400,-0724,0826,12302,029.6,045.5,0.252,754.1,01.17,0.508
2016-07-27 01:51:00,2200E-3,5C000400,-0724,0825,12171,029.6,045.5,0.252,754.1,01.17,0.508
2016-07-27 01:52:00,2193E-3,5C000400,-0724,0825,12058,029.6,045.5,0.252,754.1,01.17,0.508
2016-07-27 01:53:00,2148E-3,5C000400,-0724,0826,12284,029.5,045.5,0.252,754.1,01.17,0.508
2016-07-27 01:54:00,2286E-3,5C000400,-0724,0824,12315,029.5,045.5,0.252,754.1,01.17,0.508
2016-07-27 01:55:00,2258E-3,5C000400,-0724,0825,12326,029.6,045.5,0.252,754.1,01.17,0.508
2016-07-27 01:56:00,2154E-3,5C000400,-0724,0824,12142,029.5,045.5,0.252,754.1,01.17,0.508
2016-07-27 01:57:00,2208E-3,5C000400,-0724,0825,11965,029.6,045.5,0.252,754.0,01.17,0.508
2016-07-27 01:58:00,2273E-3,5C000400,-0724,0825,12338,029.5,045.5,0.252,754.1,01.17,0.508
2016-07-27 01:59:00,2324E-3,5C000400,-0724,0826,12228,029.6,045.5,0.252,754.1,01.17,0.508
2016-07-27 02:00:00,2412E-3,5C000400,-0724,0825,12136,029.6,045.5,0.252,754.1,01.17,0.508
2016-07-27 02:01:00,2127E-3,5C000400,-0724,0826,12110,029.5,045.5,0.252,754.1,01.17,0.508
2016-07-27 02:02:00,2263E-3,5C000400,-0724,0826,12212,029.6,045.5,0.252,754.1,01.17,0.508
2016-07-27 02:03:00,2314E-3,5C000400,-0724,0825,12330,029.6,045.5,0.252,754.1,01.17,0.508
2016-07-27 02:04:00,2270E-3,5C000400,-0724,0825,12159,029.6,045.5,0.252,754.1,01.17,0.508
2016-07-27 02:05:00,2361E-3,5C000400,-0724,0825,12305,029.6,045.5,0.252,754.1,01.17,0.508
2016-07-27 02:06:00,2175E-3,5C000400,-0724,0824,12182,029.6,045.5,0.252,754.1,01.17,0.508
2016-07-27 02:07:00,2305E-3,5C000400,-0724,0826,12170,029.6,045.5,0.252,754.1,01.17,0.508
2016-07-27 02:08:00,2266E-3,5C000400,-0724,0825,12269,029.6,045.5,0.252,754.1,01.17,0.508
2016-07-27 02:09:00,2098E-3,5C000400,-0724,0824,12228,029.6,045.5,0.252,754.1,01.17,0.508
2016-07-27 02:10:00,2208E-3,5C000400,-0724,0824,12169,029.6,045.5,0.252,754.1,01.17,0.508
2016-07-27 02:11:00,2218E-3,5C000400,-0724,0825,12285,029.6,045.5,0.252,754.1,01.17,0.508
2016-07-27 02:12:00,2282E-3,5C000400,-0724,0824,12194,029.6,045.5,0.252,754.2,01.17,0.508
2016-07-27 02:13:00,2263E-3,5C000400,-0724,0825,12201,029.6,045.5,0.252,754.1,01.17,0.508
2016-07-27 02:14:00,2295E-3,5C000400,-0724,0825,12345,029.5,045.5,0.252,754.2,01.17,0.508
2016-07-27 02:15:00,2361E-3,5C000400,-0724,0825,12230,029.6,045.5,0.252,754.1,01.17,0.508
2016-07-27 02:16:00,2282E-3,5C000400,-0724,0825,12325,029.6,045.5,0.252,754.1,01.17,0.508
2016-07-27 02:17:00,2222E-3,5C000400,-0724,0825,12293,029.6,045.5,0.252,754.1,01.17,0.508
2016-07-27 02:18:00,2352E-3,5C000400,-0724,0825,12131,029.6,045.5,0.252,754.1,01.17,0.508
2016-07-27 02:19:00,2173E-3,5C000400,-0724,0825,12054,029.5,045.5,0.252,754.1,01.17,0.508
2016-07-27 02:20:00,2275E-3,5C000400,-0724,0825,12264,029.6,045.5,0.252,754.2,01.17,0.508
2016-07-27 02:21:00,2262E-3,5C000400,-0724,0824,12246,029.6,045.5,0.252,754.1,01.17,0.508
2016-07-27 02:22:00,2328E-3,5C000400,-0724,0825,12307,029.6,045.5,0.252,754.1,01.17,0.508
2016-07-27 02:23:00,2224E-3,5C000400,-0724,0825,12236,029.6,045.5,0.252,754.1,01.17,0.508
2016-07-27 02:24:00,2274E-3,5C000400,-0724,0826,12383,029.6,045.5,0.252,754.1,01.17,0.508
2016-07-27 02:25:00,2064E-3,5C000400,-0724,0825,12291,029.6,045.5,0.252,754.1,01.17,0.508
2016-07-27 02:26:00,2152E-3,5C000400,-0724,0825,12241,029.6,045.5,0.252,754.1,01.17,0.508
2016-07-27 02:27:00,2211E-3,5C000400,-0724,0825,12178,029.6,045.5,0.252,754.0,01.17,0.508
2016-07-27 02:28:00,2210E-3,5C000400,-0724,0825,12190,029.6,045.5,0.252,754.1,01.17,0.508
2016-07-27 02:29:00,2213E-3,5C000400,-0724,0824,12161,029.6,045.5,0.252,754.0,01.17,0.508
2016-07-27 02:30:00,2232E-3,5C000400,-0724,0825,12074,029.6,045.5,0.252,754.0,01.17,0.508
2016-07-27 02:31:00,2174E-3,5C000400,-0724,0825,12032,029.6,045.5,0.252,754.0,01.17,0.508
2016-07-27 02:32:00,2320E-3,5C000400,-0724,0825,12230,029.6,045.5,0.252,754.1,01.17,0.508
2016-07-27 02:33:00,2110E-3,5C000400,-0724,0825,12272,029.6,045.5,0.252,754.1,01.17,0.508
2016-07-27 02:34:00,2169E-3,5C000400,-0724,0825,12206,029.6,045.5,0.252,754.1,01.17,0.508
2016-07-27 02:35:00,2278E-3,5C000400,-0724,0825,12293,029.6,045.5,0.252,754.0,01.17,0.508
2016-07-27 02:36:00,2232E-3,5C000400,-0724,0825,12287,029.6,045.5,0.252,754.1,01.17,0.508
2016-07-27 02:37:00,2198E-3,5C000400,-0724,0825,12272,029.6,045.5,0.252,754.1,01.17,0.508
2016-07-27 02:38:00,2238E-3,5C000400,-0724,0825,12186,029.6,045.5,0.252,754.0,01.17,0.508
2016-07-27 02:39:00,2286E-3,5C000400,-0724,0826,12262,029.6,045.5,0.252,754.1,01.17,0.508
2016-07-27 02:40:00,2189E-3,5C000400,-0724,0825,12278,029.6,045.5,0.252,754.0,01.17,0.508
2016-07-27 02:41:00,2314E-3,5C000400,-0724,0825,12253,029.6,045.5,0.252,754.1,01.17,0.508
2016-07-27 02:42:00,2134E-3,5C000400,-0724,0825,12316,029.6,045.5,0.252,754.1,01.17,0.508
2016-07-27 02:43:00,2326E-3,5C000400,-0724,0825,12194,029.6,045.5,0.252,754.1,01.17,0.508
2016-07-27 02:44:00,2248E-3,5C000400,-0724,0825,12213,029.6,045.5,0.252,754.1,01.17,0.508
2016-07-27 02:45:00,2211E-3,5C000400,-0724,0826,12138,029.6,045.5,0.252,754.1,01.17,0.508
2016-07-27 02:46:00,2416E-3,5C000400,-0724,0825,12247,029.6,045.5,0.252,754.0,01.17,0.508
2016-07-27 02:47:00,2325E-3,5C000400,-0724,0825,12273,029.6,045.5,0.252,754.1,01.17,0.508
2016-07-27 02:48:00,2274E-3,5C000400,-0724,0825,12305,029.6,045.5,0.252,754.1,01.17,0.508
2016-07-27 02:49:00,2257E-3,5C000400,-0724,0825,12310,029.6,045.5,0.252,754.1,01.17,0.508
2016-07-27 02:50:00,2170E-3,5C000400,-0724,0825,12202,029.6,045.5,0.252,754.1,01.17,0.508
2016-07-27 02:51:00,2252E-3,5C000400,-0724,0825,12306,029.6,045.5,0.252,754.1,01.17,0.508
2016-07-27 02:52:00,2203E-3,5C000400,-0724,0824,12272,029.6,045.5,0.252,754.0,01.17,0.508
2016-07-27 02:53:00,2300E-3,5C000400,-0724,0824,12303,029.6,045.5,0.252,754.1,01.17,0.508
2016-07-27 02:54:00,2166E-3,5C000400,-0724,0825,12132,029.6,045.5,0.252,754.1,01.17,0.508
2016-07-27 02:55:00,2131E-3,5C000400,-0724,0824,12135,029.6,045.5,0.252,754.2,01.17,0.508
2016-07-27 02:56:00,2189E-3,5C000400,-0724,0825,12274,029.6,045.5,0.252,754.1,01.17,0.508
2016-07-27 02:57:00,2144E-3,5C000400,-0724,0825,12301,029.6,045.5,0.252,754.1,01.17,0.508
2016-07-27 02:58:00,2242E-3,5C000400,-0724,0825,12297,029.6,045.5,0.252,754.2,01.17,0.508
2016-07-27 02:59:00,2244E-3,5C000400,-0724,0825,12340,029.6,045.5,0.252,754.2,01.17,0.508
2016-07-27 03:00:00,2297E-3,5C000400,-0724,0824,12153,029.6,045.5,0.252,754.2,01.17,0.508
2016-07-27 03:01:00,2268E-3,5C000400,-0724,0825,12106,029.6,045.5,0.252,754.2,01.17,0.508
2016-07-27 03:02:00,2250E-3,5C000400,-0724,0825,12327,029.6,045.5,0.252,754.2,01.17,0.508
2016-07-27 03:03:00,2235E-3,5C000400,-0724,0825,12244,029.6,045.5,0.252,754.2,01.17,0.508
2016-07-27 03:04:00,2206E-3,5C000400,-0724,0825,12326,029.6,045.5,0.252,754.2,01.17,0.508
2016-07-27 03:05:00,2153E-3,5C000400,-0724,0824,12252,029.6,045.5,0.252,754.1,01.17,0.508
2016-07-27 03:06:00,2184E-3,5C000400,-0724,0825,12281,029.6,045.5,0.252,754.1,01.17,0.508
2016-07-27 03:07:00,2198E-3,5C000400,-0724,0825,12269,029.6,045.5,0.252,754.1,01.17,0.508
2016-07-27 03:08:00,2459E-3,5C000400,-0724,0824,12374,029.6,045.5,0.252,754.2,01.17,0.508
2016-07-27 03:09:00,2320E-3,5C000400,-0724,0825,12242,029.6,045.5,0.252,754.1,01.17,0.508
2016-07-27 03:10:00,2255E-3,5C000400,-0724,0825,12295,029.6,045.5,0.252,754.2,01.17,0.508
2016-07-27 03:11:00,2093E-3,5C000400,-0724,0825,12349,029.6,045.5,0.252,754.1,01.17,0.508
2016-07-27 03:12:00,2076E-3,5C000400,-0724,0824,12238,029.6,045.5,0.252,754.1,01.17,0.508
2016-07-27 03:13:00,2142E-3,5C000400,-0724,0824,12247,029.6,045.5,0.252,754.1,01.17,0.508
2016-07-27 03:14:00,2153E-3,5C000400,-0724,0824,12313,029.6,045.5,0.252,754.2,01.17,0.508
2016-07-27 03:15:00,2157E-3,5C000400,-0724,0824,12251,029.6,045.5,0.252,754.2,01.17,0.508
2016-07-27 03:16:00,2144E-3,5C000400,-0724,0825,12270,029.6,045.5,0.252,754.1,01.17,0.508
2016-07-27 03:17:00,2101E-3,5C000400,-0724,0825,12100,029.6,045.5,0.252,754.2,01.17,0.508
2016-07-27 03:18:00,2263E-3,5C000400,-0724,0825,12221,029.6,045.5,0.252,754.2,01.17,0.508
2016-07-27 03:19:00,2335E-3,5C000400,-0724,0825,12330,029.6,045.5,0.252,754.2,01.17,0.508
2016-07-27 03:20:00,2295E-3,5C000400,-0724,0825,12221,029.6,045.5,0.252,754.1,01.17,0.508
2016-07-27 03:21:00,2145E-3,5C000400,-0724,0825,12127,029.6,045.5,0.252,754.1,01.17,0.508
2016-07-27 03:22:00,2339E-3,5C000400,-0724,0825,12202,029.6,045.5,0.252,754.1,01.17,0.508
2016-07-27 03:23:00,2329E-3,5C000400,-0724,0826,12257,029.6,045.5,0.252,754.1,01.17,0.508
2016-07-27 03:24:00,2230E-3,5C000400,-0724,0825,12208,029.6,045.5,0.252,754.1,01.17,0.508
2016-07-27 03:25:00,2288E-3,5C000400,-0724,0825,12318,029.6,045.5,0.252,754.1,01.17,0.508
2016-07-27 03:26:00,2289E-3,5C000400,-0724,0824,12300,029.6,045.5,0.252,754.2,01.17,0.508
2016-07-27 03:27:00,2181E-3,5C000400,-0724,0825,12328,029.6,045.5,0.252,754.2,01.17,0.508
2016-07-27 03:28:00,2226E-3,5C000400,-0724,0825,12193,029.6,045.5,0.252,754.2,01.17,0.508
2016-07-27 03:29:00,2222E-3,5C000400,-0724,0825,12104,029.6,045.5,0.252,754.1,01.17,0.508
2016-07-27 03:30:00,2308E-3,5C000400,-0724,0825,12072,029.6,045.5,0.252,754.1,01.17,0.508
2016-07-27 03:31:00,2184E-3,5C000400,-0724,0825,12234,029.6,045.5,0.252,754.1,01.17,0.508
2016-07-27 03:32:00,2225E-3,5C000400,-0724,0825,12324,029.6,045.5,0.252,754.2,01.17,0.508
2016-07-27 03:33:00,2105E-3,5C000400,-0724,0825,12250,029.6,045.5,0.252,754.2,01.17,0.508
2016-07-27 03:34:00,2159E-3,5C000400,-0724,0824,12315,029.6,045.5,0.252,754.2,01.17,0.508
2016-07-27 03:35:00,2222E-3,5C000400,-0724,0826,12261,029.7,045.5,0.252,754.2,01.17,0.508
2016-07-27 03:36:00,2231E-3,5C000400,-0724,0824,12325,029.6,045.5,0.252,754.2,01.17,0.508
2016-07-27 03:37:00,2282E-3,5C000400,-0724,0824,12298,029.6,045.5,0.252,754.2,01.17,0.508
2016-07-27 03:38:00,2167E-3,5C000400,-0724,0825,12237,029.6,045.5,0.252,754.2,01.17,0.508
2016-07-27 03:39:00,2271E-3,5C000400,-0724,0825,12241,029.6,045.5,0.252,754.2,01.17,0.508
2016-07-27 03:40:00,2236E-3,5C000400,-0724,0825,12379,029.6,045.5,0.252,754.2,01.17,0.508
2016-07-27 03:41:00,2075E-3,5C000400,-0724,0825,12291,029.7,045.5,0.252,754.2,01.17,0.508
2016-07-27 03:42:00,2119E-3,5C000400,-0724,0824,12266,029.7,045.5,0.252,754.2,01.17,0.508
2016-07-27 03:43:00,2102E-3,5C000400,-0724,0824,12307,029.6,045.5,0.252,754.2,01.17,0.508
2016-07-27 03:44:00,2124E-3,5C000400,-0724,0824,12261,029.6,045.5,0.252,754.2,01.17,0.508
2016-07-27 03:45:00,2149E-3,5C000400,-0724,0825,12364,029.6,045.5,0.252,754.2,01.17,0.508
2016-07-27 03:46:00,2238E-3,5C000400,-0724,0825,12188,029.7,045.5,0.252,754.2,01.17,0.508
2016-07-27 03:47:00,2224E-3,5C000400,-0724,0825,12255,029.6,045.5,0.252,754.3,01.17,0.508
2016-07-27 03:48:00,2234E-3,5C000400,-0724,0824,12252,029.6,045.5,0.252,754.3,01.17,0.508
2016-07-27 03:49:00,2134E-3,5C000400,-0724,0825,12310,029.6,045.5,0.252,754.3,01.17,0.508
2016-07-27 03:50:00,2229E-3,5C000400,-0724,0825,12385,029.6,045.5,0.252,754.3,01.17,0.508
2016-07-27 03:51:00,2164E-3,5C000400,-0724,0824,12267,029.7,045.5,0.252,754.3,01.17,0.508
2016-07-27 03:52:00,2331E-3,5C000400,-0724,0824,12208,029.7,045.5,0.252,754.3,01.17,0.508
2016-07-27 03:53:00,2124E-3,5C000400,-0724,0825,12371,029.6,045.5,0.252,754.3,01.17,0.508
2016-07-27 03:54:00,2208E-3,5C000400,-0724,0825,12153,029.7,045.5,0.251,754.3,01.17,0.508
2016-07-27 03:55:00,2217E-3,5C000400,-0724,0825,12248,029.6,045.5,0.252,754.4,01.17,0.508
2016-07-27 03:56:00,2255E-3,5C000400,-0724,0825,12226,029.7,045.5,0.251,754.4,01.17,0.508
2016-07-27 03:57:00,2308E-3,5C000400,-0724,0825,12259,029.6,045.5,0.252,754.4,01.17,0.508
2016-07-27 03:58:00,2290E-3,5C000400,-0724,0825,12211,029.6,045.5,0.252,754.4,01.17,0.508
2016-07-27 03:59:00,2306E-3,5C000400,-0724,0826,12189,029.7,045.5,0.252,754.4,01.17,0.508
2016-07-27 04:00:00,2287E-3,5C000400,-0724,0824,12330,029.7,045.5,0.252,754.4,01.17,0.508
2016-07-27 04:01:00,2338E-3,5C000400,-0724,0825,12272,029.7,045.5,0.252,754.3,01.17,0.508
2016-07-27 04:02:00,2213E-3,5C000400,-0724,0825,12090,029.6,045.5,0.252,754.3,01.17,0.508
2016-07-27 04:03:00,2147E-3,5C000400,-0724,0825,12229,029.6,045.5,0.252,754.3,01.17,0.508
2016-07-27 04:04:00,2193E-3,5C000400,-0724,0825,12042,029.7,045.5,0.252,754.3,01.17,0.508
2016-07-27 04:05:00,2121E-3,5C000400,-0724,0824,12239,029.7,045.5,0.252,754.3,01.17,0.508
2016-07-27 04:06:00,2274E-3,5C000400,-0724,0825,12398,029.6,045.5,0.252,754.2,01.17,0.508
2016-07-27 04:07:00,2271E-3,5C000400,-0724,0825,12363,029.7,045.5,0.252,754.2,01.17,0.508
2016-07-27 04:08:00,2111E-3,5C000400,-0724,0825,12308,029.6,045.5,0.252,754.1,01.17,0.508
2016-07-27 04:09:00,2269E-3,5C000400,-0724,0825,12111,029.7,045.5,0.252,754.3,01.17,0.508
2016-07-27 04:10:00,2282E-3,5C000400,-0724,0824,12270,029.7,045.5,0.252,754.3,01.17,0.508
2016-07-27 04:11:00,2235E-3,5C000400,-0724,0824,12084,029.6,045.5,0.252,754.3,01.17,0.508
2016-07-27 04:12:00,2254E-3,5C000400,-0724,0824,12134,029.6,045.5,0.252,754.3,01.17,0.508
2016-07-27 04:13:00,2288E-3,5C000400,-0724,0825,12324,029.7,045.5,0.251,754.4,01.17,0.508
2016-07-27 04:14:00,2182E-3,5C000400,-0724,0825,12201,029.6,045.5,0.252,754.4,01.17,0.508
2016-07-27 04:15:00,2089E-3,5C000400,-0724,0825,12159,029.6,045.5,0.251,754.4,01.17,0.508
2016-07-27 04:16:00,2279E-3,5C000400,-0724,0825,12211,029.6,045.5,0.252,754.4,01.17,0.508
2016-07-27 04:17:00,2269E-3,5C000400,-0724,0824,12353,029.7,045.5,0.252,754.4,01.17,0.508
2016-07-27 04:18:00,2259E-3,5C000400,-0724,0825,12370,029.6,045.5,0.252,754.4,01.17,0.508
2016-07-27 04:19:00,2235E-3,5C000400,-0724,0824,12186,029.6,045.5,0.252,754.5,01.17,0.508
2016-07-27 04:20:00,2250E-3,5C000400,-0724,0824,12301,029.6,045.5,0.252,754.4,01.17,0.508